Wind_Speed
12 12 12 13 13 14 13 12 12 12 13 15 17 18 19 20 21 21 21 23 24 26 27 29 31 33 35 37 38 39 39 40 41 42 42 43 43 43 43 42 41 40 39 39
12 12 12 12 12 13 12 13 13 14 16 18 19 20 21 21 22 22 22 24 25 26 28 31 33 35 37 38 39 40 40 41 42 43 43 44 44 44 44 43 42 41 40 39
12 13 13 12 12 12 12 13 15 16 18 19 21 21 22 22 22 22 23 24 26 28 30 32 34 37 38 39 40 41 41 42 43 43 44 44 45 45 44 44 43 42 41 40
12 13 13 11 12 11 12 13 15 17 19 21 22 22 22 22 23 23 24 26 27 29 31 34 36 38 39 40 41 41 42 43 43 44 44 45 45 45 45 44 43 42 41 40
13 12 11 11 12 12 13 14 16 18 20 21 22 22 22 23 23 24 26 27 28 30 33 35 37 38 40 41 41 42 43 44 44 44 45 46 46 46 45 44 43 42 41 40
14 14 11 10 12 13 14 14 17 19 21 22 22 23 23 24 25 26 27 28 30 32 34 36 38 39 40 41 42 43 43 44 45 45 46 46 47 46 45 44 43 42 41 41
16 16 13 14 14 14 16 17 18 20 21 22 23 24 24 25 26 27 28 30 31 34 36 37 39 40 40 42 43 43 44 45 46 47 47 47 47 46 45 44 43 42 41 40
19 18 17 17 18 18 19 20 21 22 23 24 25 25 26 27 28 29 30 32 33 35 37 38 39 40 41 42 44 45 46 46 47 47 48 47 46 46 45 43 42 41 40 39
21 20 20 21 21 22 22 23 24 25 26 26 26 27 27 28 29 30 32 33 35 37 38 40 40 41 42 43 45 46 47 48 48 48 48 47 46 45 44 43 41 41 40 39
25 24 24 24 24 25 26 26 26 27 28 28 28 29 29 30 31 32 34 35 37 38 40 41 42 42 44 45 46 47 49 49 49 49 48 47 46 45 43 41 40 40 39 38
28 27 28 26 26 27 27 28 28 29 29 30 30 31 31 32 33 34 35 37 38 39 41 42 43 44 46 47 48 49 50 50 50 48 47 46 45 44 42 40 39 39 38 37
30 29 30 28 28 29 29 29 29 30 31 31 32 32 33 34 34 35 37 38 40 41 42 43 44 46 48 49 50 51 51 50 49 47 46 44 44 42 41 39 39 38 37 36
32 32 32 31 31 31 31 31 32 33 33 33 33 34 35 35 35 37 39 40 41 42 43 45 47 48 50 50 51 52 51 50 48 46 45 43 42 40 38 37 37 37 36 35
33 34 34 34 33 33 33 34 34 35 36 35 35 36 37 37 37 39 41 41 42 44 45 47 50 51 51 51 52 52 51 49 48 46 43 41 40 39 37 36 35 35 34 33
34 35 36 36 36 36 36 37 37 37 38 38 38 39 40 40 41 42 42 43 45 46 48 50 51 51 52 52 52 51 50 48 46 44 41 39 38 37 36 35 34 33 32 31
36 37 38 39 39 40 40 40 40 40 40 40 41 42 44 45 44 44 45 46 48 50 50 51 53 53 54 53 52 51 50 47 44 41 39 37 36 35 34 33 32 32 30 29
38 39 40 41 42 42 42 42 42 42 42 43 44 46 48 48 47 47 48 50 51 52 52 53 54 54 54 54 53 51 48 45 41 39 37 35 34 33 32 31 30 30 29 27
41 41 42 43 43 43 43 43 44 45 45 46 47 49 50 51 51 52 52 53 54 53 53 54 55 56 55 53 51 48 45 42 39 37 35 33 32 31 30 29 29 28 27 26
42 42 43 43 43 44 45 45 46 48 49 51 52 53 54 54 55 54 55 55 54 53 54 56 56 55 53 50 47 44 42 39 37 34 32 31 30 29 28 27 27 26 25 24
45 45 45 46 47 48 48 49 50 51 53 54 55 56 56 56 56 57 57 57 56 56 56 55 53 51 49 47 44 42 39 37 34 32 30 29 28 27 25 25 25 24 24 23
47 47 48 49 50 51 52 54 55 55 56 57 59 59 60 60 59 59 59 58 57 56 55 53 51 49 47 44 42 39 37 34 31 29 28 27 26 24 23 23 22 22 22 21
49 50 51 52 53 54 56 57 58 59 60 60 60 61 61 61 60 59 58 58 56 55 53 50 48 46 44 42 39 36 34 31 28 27 26 24 23 22 21 20 20 20 20 19
52 53 54 55 56 57 58 59 60 60 61 61 61 61 61 60 60 59 57 55 54 52 50 48 45 43 41 38 35 33 31 29 26 25 24 22 21 20 19 18 18 18 17 17
56 57 58 58 59 59 60 60 60 60 60 60 60 60 59 58 57 56 55 53 51 48 46 43 41 39 37 35 33 31 29 26 24 22 21 20 19 17 16 16 15 15 14 14
58 59 59 60 60 60 60 61 60 60 59 59 58 57 56 55 54 52 50 48 46 43 41 39 37 36 34 32 30 29 26 23 22 20 18 18 17 15 14 14 13 13 12 12
59 59 60 60 60 61 60 60 60 59 59 58 56 55 54 52 51 48 46 44 41 39 36 35 33 32 30 28 27 25 24 22 20 19 17 16 15 14 13 12 11 11 10 10
59 60 60 60 60 60 60 59 59 58 57 56 54 53 51 49 47 44 42 40 37 35 33 31 30 28 26 25 24 22 20 19 18 17 16 15 14 12 11 10 10 9 8 8
Wind_Direction
281 280 279 279 277 279 285 295 304 310 312 312 313 316 320 324 326 329 330 331 332 332 334 335 336 336 335 334 334 333 333 332 332 331 330 329 329 327 325 324 322 318 315 312
284 287 289 288 283 283 288 295 299 304 307 309 313 316 320 323 325 326 327 328 329 331 333 334 334 334 334 333 333 333 332 332 332 331 330 329 329 327 325 323 321 319 316 313
280 287 293 294 292 292 293 294 296 299 303 307 311 315 319 321 323 324 325 326 327 330 331 332 332 332 332 332 332 332 332 332 332 331 330 329 328 327 325 323 321 319 317 314
278 285 293 296 293 295 297 299 298 300 303 307 311 314 317 318 320 322 323 325 327 328 329 330 330 330 330 331 331 331 331 331 331 331 330 330 328 327 325 324 322 320 318 316
277 284 293 291 291 294 298 301 300 302 303 306 309 311 313 316 319 321 322 323 325 327 327 328 328 328 329 330 330 330 330 330 330 330 330 329 329 327 326 325 323 321 320 318
279 285 290 292 291 296 298 301 300 300 301 304 308 311 315 317 319 320 321 322 323 324 325 326 327 327 328 329 330 330 330 330 330 329 329 328 328 327 326 326 324 323 321 320
280 283 290 294 297 299 303 303 301 301 304 308 312 314 316 317 318 318 319 320 321 322 323 325 326 327 327 328 329 330 330 329 329 328 328 328 328 327 327 326 325 324 323 322
279 283 291 294 299 300 301 302 304 305 307 309 311 313 314 314 315 316 317 318 320 321 322 324 325 326 327 328 329 330 330 329 329 328 328 328 328 328 328 327 327 326 325 324
279 284 290 294 297 299 300 303 304 304 306 308 309 310 311 312 313 314 315 317 319 320 322 323 325 326 327 328 329 330 330 329 329 329 328 328 328 328 329 329 328 328 327 326
280 284 288 290 293 296 298 300 301 302 304 305 306 307 308 309 311 313 315 317 318 320 321 323 324 326 327 328 328 329 329 328 328 329 329 328 328 329 329 329 329 329 329 329
276 280 282 285 288 291 294 296 297 298 300 301 302 304 305 307 309 311 314 316 318 319 321 323 324 326 326 327 327 327 327 327 328 328 329 329 329 330 330 330 330 331 331 331
273 277 280 284 287 289 291 293 293 294 296 297 299 300 302 305 308 311 313 315 317 319 320 321 323 325 325 325 326 326 327 327 328 328 329 329 330 331 331 331 332 332 333 334
276 279 281 284 286 287 288 289 290 291 293 294 296 299 301 303 305 309 311 312 315 318 318 319 321 322 322 323 324 326 327 327 328 328 328 328 330 331 331 331 332 333 334 335
275 278 280 282 283 284 285 287 288 290 291 293 295 298 300 301 303 306 309 309 311 315 316 317 318 319 319 321 323 324 325 326 327 327 328 329 329 331 331 332 333 334 336 338
274 276 278 279 280 281 283 285 287 288 290 291 294 296 297 298 299 301 304 305 307 311 313 314 316 317 317 319 321 323 324 325 326 326 327 328 329 331 331 332 334 335 337 340
275 276 277 278 280 281 283 285 286 287 289 290 292 293 295 295 297 299 300 301 304 306 309 311 312 314 315 316 319 321 321 323 324 325 326 327 328 330 330 331 333 335 337 340
273 274 276 278 280 282 284 286 287 287 288 289 290 291 293 293 294 295 296 299 301 303 305 308 309 311 312 314 316 318 319 320 321 323 325 325 327 329 329 330 332 335 337 340
274 276 278 280 281 283 285 285 286 286 286 287 288 290 290 291 292 293 295 297 300 301 302 304 307 309 310 311 313 315 316 318 319 321 322 323 325 327 328 329 331 334 336 339
280 281 282 283 283 283 284 284 285 285 285 286 287 288 289 291 292 294 295 297 298 299 300 302 305 307 308 309 310 312 313 315 316 317 319 321 323 325 326 328 330 332 335 338
282 282 282 282 282 283 283 283 283 284 285 286 287 289 290 291 292 294 294 296 297 298 299 301 303 304 304 305 307 308 310 311 312 313 315 318 321 323 324 327 329 332 334 337
281 281 281 282 282 283 283 283 283 284 284 285 286 288 289 291 292 293 294 295 296 296 297 299 300 301 301 302 303 305 307 307 307 308 311 314 317 319 321 324 328 331 334 337
282 282 282 283 283 283 283 284 285 286 287 287 288 289 290 291 292 293 294 295 295 295 295 296 297 297 298 299 299 300 302 303 303 304 308 310 313 314 316 320 325 329 333 336
283 283 284 284 284 285 285 286 287 287 288 289 290 291 291 292 292 292 293 293 293 293 293 293 293 294 294 294 295 295 296 297 298 301 303 306 308 309 312 317 323 327 332 337
284 284 285 285 285 286 286 287 288 289 290 290 291 291 291 292 292 292 292 292 292 291 291 290 289 290 289 289 289 289 291 292 294 296 299 301 303 305 308 312 318 324 330 336
285 285 286 286 287 288 288 289 290 290 291 291 292 292 292 292 292 291 291 290 290 289 288 286 285 286 286 286 284 284 285 285 288 292 294 296 298 299 302 305 311 320 328 335
287 288 288 289 290 290 291 291 292 292 292 293 293 292 292 292 292 291 290 289 288 286 284 282 281 281 282 281 280 280 279 279 280 283 286 290 293 294 296 298 302 312 322 329
289 290 290 291 292 293 293 294 294 294 294 294 294 293 293 292 291 290 288 286 284 281 279 276 275 276 275 274 274 273 273 274 276 276 277 282 284 286 290 293 296 303 310 318
Height
5847 5846 5846 5845 5845 5843 5842 5842 5841 5839 5837 5835 5832 5830 5827 5824 5821 5818 5815 5812 5809 5805 5801 5797 5792 5787 5782 5777 5771 5765 5759 5753 5746 5740 5733 5726 5719 5712 5705 5698 5692 5685 5679 5673
5844 5843 5842 5842 5841 5839 5839 5838 5837 5835 5833 5831 5828 5825 5822 5819 5816 5813 5811 5807 5804 5800 5796 5792 5787 5782 5776 5771 5765 5759 5752 5746 5739 5732 5725 5718 5710 5703 5696 5689 5682 5675 5669 5663
5842 5841 5840 5839 5837 5836 5835 5834 5833 5831 5830 5826 5823 5820 5818 5815 5812 5809 5806 5803 5799 5795 5791 5786 5781 5776 5770 5765 5758 5752 5745 5738 5732 5724 5717 5709 5702 5694 5687 5679 5672 5665 5659 5652
5838 5839 5837 5838 5834 5833 5832 5830 5828 5826 5824 5821 5819 5816 5813 5810 5807 5804 5801 5798 5794 5790 5785 5781 5776 5770 5764 5758 5752 5745 5738 5731 5724 5716 5709 5701 5693 5685 5677 5670 5662 5655 5648 5642
5835 5834 5834 5833 5831 5829 5828 5827 5824 5822 5819 5817 5814 5811 5809 5806 5803 5799 5796 5792 5788 5784 5780 5775 5770 5764 5758 5752 5745 5738 5731 5723 5716 5708 5701 5693 5685 5676 5668 5660 5653 5645 5638 5631
5831 5830 5830 5831 5828 5826 5825 5823 5820 5817 5814 5812 5809 5806 5804 5800 5797 5794 5790 5787 5783 5778 5774 5769 5763 5757 5751 5745 5738 5731 5723 5716 5708 5700 5692 5684 5676 5668 5659 5651 5643 5635 5628 5621
5827 5826 5826 5825 5823 5822 5821 5818 5815 5812 5809 5806 5803 5801 5798 5795 5791 5788 5785 5781 5777 5772 5768 5762 5757 5751 5744 5738 5731 5724 5716 5708 5700 5692 5684 5676 5668 5659 5651 5643 5635 5627 5619 5611
5822 5821 5822 5819 5817 5816 5814 5812 5809 5806 5803 5801 5798 5795 5792 5789 5786 5782 5779 5775 5771 5766 5761 5756 5750 5744 5737 5731 5724 5716 5709 5701 5693 5684 5676 5668 5659 5651 5642 5634 5626 5618 5610 5602
5816 5817 5815 5813 5811 5810 5807 5805 5803 5800 5798 5795 5792 5789 5786 5783 5779 5776 5772 5768 5763 5759 5753 5748 5742 5736 5730 5723 5716 5709 5701 5693 5685 5676 5667 5659 5651 5642 5634 5626 5618 5610 5602 5595
5808 5809 5808 5806 5805 5803 5801 5799 5797 5794 5792 5789 5786 5783 5780 5776 5773 5769 5765 5760 5756 5751 5746 5740 5734 5728 5722 5715 5708 5701 5693 5685 5677 5668 5659 5651 5642 5634 5626 5619 5611 5603 5595 5587
5801 5801 5800 5799 5798 5796 5794 5792 5790 5788 5785 5782 5779 5776 5772 5769 5765 5761 5757 5752 5748 5743 5738 5732 5726 5720 5714 5707 5700 5692 5685 5677 5669 5660 5652 5643 5635 5626 5619 5611 5603 5596 5588 5581
5793 5794 5792 5792 5791 5789 5787 5785 5783 5780 5778 5775 5771 5768 5765 5761 5757 5753 5749 5744 5739 5734 5729 5724 5718 5712 5705 5699 5692 5684 5676 5668 5660 5652 5644 5636 5628 5620 5611 5604 5597 5589 5582 5575
5786 5786 5784 5784 5782 5781 5779 5777 5774 5772 5769 5767 5763 5760 5757 5753 5749 5744 5740 5735 5731 5726 5721 5715 5710 5704 5697 5690 5683 5675 5668 5660 5652 5644 5637 5629 5622 5614 5607 5600 5591 5584 5577 5569
5778 5777 5775 5774 5773 5771 5769 5767 5765 5763 5760 5757 5754 5751 5747 5744 5739 5735 5731 5726 5722 5717 5712 5706 5701 5695 5688 5681 5674 5666 5659 5652 5644 5637 5629 5622 5615 5608 5601 5594 5588 5580 5573 5565
5769 5767 5766 5764 5763 5761 5760 5758 5756 5753 5751 5748 5745 5741 5738 5734 5730 5725 5721 5716 5712 5707 5702 5697 5691 5685 5678 5672 5665 5657 5650 5644 5637 5629 5622 5616 5609 5603 5596 5589 5583 5576 5569 5562
5759 5757 5756 5754 5753 5751 5749 5747 5745 5743 5740 5738 5734 5731 5727 5723 5719 5715 5710 5705 5701 5697 5692 5686 5681 5675 5668 5662 5655 5649 5642 5636 5629 5623 5616 5610 5603 5597 5591 5585 5578 5572 5566 5559
5749 5747 5746 5744 5742 5741 5739 5737 5734 5732 5729 5726 5723 5719 5715 5711 5707 5703 5699 5694 5690 5685 5680 5675 5670 5664 5658 5652 5646 5640 5634 5628 5622 5616 5610 5604 5598 5592 5586 5580 5575 5569 5563 5557
5739 5737 5735 5733 5732 5729 5727 5725 5722 5719 5716 5713 5710 5706 5702 5698 5694 5690 5685 5681 5678 5673 5668 5663 5658 5652 5647 5642 5636 5631 5625 5619 5614 5609 5603 5598 5593 5588 5582 5576 5571 5565 5560 5554
5726 5724 5723 5721 5719 5717 5714 5711 5708 5705 5702 5698 5695 5692 5688 5684 5680 5676 5672 5668 5664 5660 5656 5650 5645 5641 5636 5631 5626 5621 5616 5611 5606 5602 5597 5592 5588 5583 5578 5573 5567 5562 5557 5552
5712 5710 5709 5707 5704 5702 5699 5697 5693 5690 5686 5683 5679 5676 5673 5669 5665 5662 5658 5654 5650 5645 5641 5637 5633 5628 5624 5620 5616 5611 5607 5603 5599 5595 5591 5587 5582 5578 5574 5569 5564 5559 5555 5550
5698 5696 5694 5692 5689 5686 5683 5680 5677 5674 5670 5667 5664 5660 5657 5653 5649 5646 5642 5639 5635 5630 5626 5623 5619 5616 5612 5608 5605 5601 5598 5595 5591 5588 5584 5581 5577 5573 5569 5565 5561 5557 5552 5548
5683 5681 5679 5676 5673 5670 5666 5663 5660 5657 5653 5650 5646 5643 5640 5636 5633 5629 5625 5622 5619 5615 5611 5609 5606 5603 5600 5597 5594 5591 5589 5586 5583 5580 5577 5575 5572 5568 5565 5562 5558 5554 5550 5546
5668 5665 5662 5659 5656 5653 5650 5646 5643 5640 5636 5633 5629 5626 5622 5618 5615 5612 5610 5606 5602 5599 5597 5594 5592 5589 5587 5585 5583 5581 5580 5578 5575 5573 5571 5568 5566 5563 5561 5558 5555 5551 5548 5544
5651 5648 5645 5642 5639 5635 5632 5629 5625 5622 5619 5615 5611 5607 5604 5601 5598 5594 5591 5589 5586 5584 5582 5580 5578 5577 5575 5574 5573 5571 5570 5569 5567 5566 5564 5562 5560 5558 5556 5554 5552 5549 5546 5543
5633 5630 5626 5623 5620 5617 5614 5610 5607 5604 5600 5597 5593 5589 5585 5582 5580 5578 5575 5572 5570 5568 5567 5566 5565 5564 5563 5563 5562 5561 5561 5560 5560 5559 5558 5557 5555 5554 5552 5550 5548 5546 5544 5541
5614 5611 5608 5605 5601 5598 5594 5591 5588 5585 5581 5578 5575 5571 5568 5565 5562 5560 5558 5556 5555 5554 5553 5553 5553 5552 5552 5552 5552 5552 5552 5552 5552 5552 5552 5551 5550 5549 5548 5546 5545 5543 5542 5540
5596 5593 5590 5586 5582 5578 5575 5572 5569 5565 5562 5559 5556 5553 5550 5548 5546 5544 5542 5541 5540 5540 5540 5540 5541 5541 5542 5543 5543 5544 5544 5545 5545 5545 5546 5545 5545 5544 5543 5543 5542 5541 5539 5538